[[{"header":{"parameterUnit":"m.s-1","parameterCategory":2,"la1":30.2991,"la2":30.254,"lo1":-89.0895,"lo2":-89.0444,"dy":0.0017,"dx":0.0017,"nx":28,"ny":28,"refTime":"2024-06-03T21:00:00:Z","depth":"0","parameterNumber":2,"parameterNumberName":"U-component_of_CURRENTS"},"data":[0,0,0,0,0,0,0,0,0,0,0,0,0,0,0,0,0,0,0,0,0,0,0,0,0,0,0,0,0,0,0,0,0,0,0,0,0,0,0,0,0,0,0,0,0,0,0,0,0,0,0,0,0,0,0,0,0,0,0.3355,0.3356,0,0.3399,0.34,0.34,0.3363,0.3362,0.3361,0.336,0.3373,0.3375,0.3376,0,0,0,0,0,0,0,0,0,0,0,0,0,0.3278,0.3279,0.3355,0.3356,0.3357,0.3399,0.34,0.34,0.3364,0.3362,0.3361,0.3359,0.3373,0.3375,0.3376,0,0,0,0,0,0,0,0,0,0,0,0,0,0.3313,0.328,0.3355,0.3346,0.3346,0.3399,0.34,0.34,0.3364,0.3362,0.336,0.3359,0.3372,0.3374,0.3377,0.3428,0,0,0.3384,0.3385,0,0,0,0,0,0,0,0,0.3311,0.3315,0.3346,0.3347,0.3347,0.3377,0.3378,0.3409,0.3364,0.3354,0.336,0.3358,0.3375,0.3377,0.3385,0.3428,0.3429,0.3384,0.3385,0.3386,0.3387,0,0,0,0,0,0,0,0.3308,0.3313,0.3369,0.3348,0.3348,0.3354,0.3356,0.3384,0.3371,0.3354,0.3353,0.3364,0.3374,0.3383,0.3385,0.3429,0.3384,0.3386,0.3387,0.3388,0.356,0.3563,0,0,0,0,0,0,0.331,0.3311,0.3368,0.3371,0.3328,0.3357,0.3359,0.3366,0.3371,0.3372,0.3365,0.3362,0.338,0.3383,0.3386,0.3485,0.3386,0.3388,0.339,0.3557,0.3561,0.3564,0,0,0,0,0,0,0.3308,0.3314,0.3366,0.3345,0.3352,0.336,0.3369,0.3368,0.338,0.3381,0.3379,0.3378,0.3379,0.3383,0.343,0.3483,0.3389,0.3391,0.3553,0.3558,0.3562,0.3658,0,0,0,0,0,0,0.3306,0.3313,0.3324,0.3345,0.3353,0.341,0.3371,0.3371,0.3391,0.3387,0.3392,0.339,0.3378,0.3427,0.3433,0.3485,0.3393,0.3549,0.3555,0.3561,0.3651,0.3666,0.3679,0,0,0,0,0,0.3303,0.3326,0.3324,0.3332,0.3366,0.3412,0.3417,0.3414,0.3394,0.3414,0.3421,0.339,0.3469,0.3432,0.3437,0.3491,0.3546,0.3553,0.356,0.3645,0.3663,0.3678,0,0,0,0,0,0,0.3294,0.3326,0.3324,0.3353,0.3386,0.3407,0.3427,0.3427,0.3449,0.3442,0.343,0.3432,0.3494,0.3488,0.3447,0.3562,0.3504,0.3513,0.3567,0.3584,0.3597,0.3628,0.3395,0,0,0,0,0,0.3301,0.3327,0.3358,0.3383,0.34,0.3417,0.3435,0.3437,0.3459,0.3465,0.347,0.3489,0.3532,0.355,0.3575,0.3641,0.3656,0.3681,0.3695,0.3706,0.3739,0.3806,0.3828,0.3588,0.3588,0.3588,0,0,0.3305,0.3327,0.334,0.3384,0.3404,0.3453,0.3422,0.3459,0.3505,0.3467,0.3524,0.3534,0.356,0.3629,0.3657,0.3629,0.3786,0.3716,0.3725,0.3752,0.3816,0.3839,0.3859,0.3593,0.3592,0.3591,0,0,0.3334,0.3346,0.338,0.3416,0.3459,0.3481,0.3497,0.3528,0.3546,0.3607,0.36,0.3654,0.3693,0.3739,0.3764,0.3877,0.3853,0.3874,0.3972,0.4036,0.4056,0.4074,0.4128,0.4149,0.3883,0.3884,0.3884,0,0.3333,0.3382,0.34,0.3448,0.3485,0.3499,0.3552,0.3591,0.3635,0.3669,0.3635,0.3746,0.3758,0.3878,0.3919,0.391,0.3931,0.39,0.4053,0.4071,0.4088,0.4138,0.4161,0.3889,0.3888,0.3888,0.3887,0,0.3394,0.3435,0.3462,0.3529,0.3575,0.3622,0.3679,0.3724,0.3741,0.3775,0.3875,0.3907,0.397,0.3992,0.3992,0.413,0.4102,0.4056,0.4006,0.4118,0.4164,0.4186,0.3897,0.3895,0.3893,0.3892,0,0,0.3371,0.3482,0.3488,0.3534,0.3619,0.3661,0.3757,0.3847,0.3907,0.396,0.4047,0.4146,0.4149,0.4183,0.4194,0.4268,0.4403,0.4222,0.4223,0.4267,0.4543,0.4462,0.4478,0.4372,0.4377,0.438,0.4528,0,0.3407,0.3508,0.356,0.366,0.3715,0.3774,0.3861,0.3945,0.4004,0.4089,0.416,0.424,0.4227,0.426,0.4339,0.4394,0.4465,0.4367,0.4437,0.444,0.4347,0.4503,0.4281,0.4389,0.455,0.4553,0.4556,0,0.344,0.3507,0.3607,0.3726,0.3755,0.3818,0.3947,0.4033,0.4164,0.4207,0.4308,0.4343,0.45,0.4433,0.4617,0.455,0.4567,0.4595,0.4599,0.451,0.4401,0.4305,0.4422,0.4323,0.4589,0.4586,0.4584,0,0.3407,0.3535,0.3615,0.3656,0.3795,0.3849,0.3928,0.4059,0.4137,0.4288,0.4352,0.4501,0.4585,0.4663,0.4734,0.4683,0.4898,0.4818,0.4765,0.4758,0.4581,0.455,0.4604,0.4931,0.4931,0.493,0.493,0,0.3417,0.3475,0.3601,0.364,0.3732,0.3839,0.3941,0.404,0.4182,0.429,0.4408,0.4519,0.4645,0.4765,0.4798,0.4877,0.4951,0.4836,0.4813,0.4607,0.4579,0.4489,0.4441,0.4936,0.4935,0.4934,0.4933,0,0.3363,0.3447,0.3537,0.3676,0.3712,0.3779,0.3924,0.4006,0.4157,0.4304,0.4362,0.4571,0.4747,0.4849,0.4991,0.4958,0.4891,0.5015,0.4767,0.4712,0.4537,0.4502,0.4386,0.4262,0.5,0.4999,0.4998,0,0.3342,0.3389,0.3526,0.3571,0.3627,0.373,0.3798,0.396,0.4053,0.4332,0.4403,0.4627,0.475,0.495,0.4951,0.501,0.4867,0.4813,0.4678,0.4553,0.4498,0.4313,0.4204,0.4485,0.4481,0.4477,0.4474,0,0.3303,0.3354,0.3425,0.3512,0.3582,0.367,0.3785,0.3841,0.4056,0.4178,0.4377,0.4506,0.472,0.4702,0.4784,0.4781,0.4572,0.4732,0.4669,0.4184,0.3921,0.3778,0.4366,0.4438,0.4442,0.4445,0.4446,0.4448,0.3254,0.3291,0.338,0.3447,0.3519,0.3586,0.3599,0.373,0.3835,0.3984,0.4225,0.4319,0.4437,0.4526,0.4509,0.4339,0.4342,0.4191,0.4189,0.4036,0.382,0.4341,0.4337,0.434,0.4342,0.4344,0.4346,0,0.3183,0.324,0.3312,0.3372,0.3384,0.3471,0.3563,0.3546,0.3578,0.3764,0.3889,0.3976,0.3962,0.4024,0.3963,0.3823,0.3619,0.3725,0.3422,0.3366,0.3897,0.3777,0.3568,0.3568,0.3568,0.3568,0.3568,0.3568,0.3146,0.3178,0.3216,0.3204,0.3236,0.3209,0.322,0.3212,0.3284,0.3305,0.3332,0.347,0.3664,0.369,0.3548,0.3456,0.3217,0.3029,0.3085,0.3477,0.3519,0.3559,0.3437,0.316,0.3159,0.236,0.2354,0.235]},{"header":{"parameterUnit":"m.s-1","parameterCategory":2,"la1":30.2991,"la2":30.254,"lo1":-89.0895,"lo2":-89.0444,"dy":0.0017,"dx":0.0017,"nx":28,"ny":28,"refTime":"2024-06-03T21:00:00:Z","depth":"0","parameterNumber":3,"parameterNumberName":"V-component_of_CURRENTS"},"data":[0,0,0,0,0,0,0,0,0,0,0,0,0,0,0,0,0,0,0,0,0,0,0,0,0,0,0,0,0,0,0,0,0,0,0,0,0,0,0,0,0,0,0,0,0,0,0,0,0,0,0,0,0,0,0,0,0,0,0.0184,0.0184,0,0.0133,0.0132,0.0131,0.0092,0.0092,0.0092,0.0091,0.0033,0.0031,0.003,0,0,0,0,0,0,0,0,0,0,0,0,0,0.0207,0.0207,0.0184,0.0184,0.0183,0.0133,0.0132,0.0131,0.0092,0.0092,0.0092,0.0091,0.0033,0.0032,0.003,0,0,0,0,0,0,0,0,0,0,0,0,0,0.0179,0.0207,0.0184,0.0158,0.0156,0.0133,0.0132,0.0131,0.0092,0.0092,0.0092,0.0091,0.0034,0.0032,0.003,0.0025,0,0,0.0024,0.0023,0,0,0,0,0,0,0,0,0.0181,0.0178,0.0163,0.016,0.0157,0.0119,0.0118,0.0096,0.0092,0.0115,0.0091,0.0091,0.0062,0.0058,0.0047,0.0022,0.002,0.0024,0.0022,0.0022,0.0021,0,0,0,0,0,0,0,0.0183,0.018,0.0163,0.0162,0.0159,0.0135,0.0131,0.0114,0.009,0.0113,0.0111,0.0107,0.006,0.0049,0.0046,0.0019,0.0024,0.0022,0.0021,0.002,-0.0007,-0.0006,0,0,0,0,0,0,0.0194,0.0182,0.0164,0.0161,0.017,0.0135,0.0131,0.0131,0.0091,0.0085,0.0107,0.0105,0.0053,0.0048,0.0044,0.0059,0.0022,0.002,0.0019,-0.0007,-0.0007,-0.0006,0,0,0,0,0,0,0.0195,0.0193,0.0166,0.0171,0.0166,0.0136,0.0136,0.013,0.0123,0.0086,0.008,0.0107,0.0053,0.0046,0.0035,0.0055,0.0019,0.0017,-0.0008,-0.0007,-0.0006,0.0074,0,0,0,0,0,0,0.0196,0.0194,0.0198,0.0172,0.0166,0.0165,0.0136,0.013,0.0122,0.0119,0.0084,0.0078,0.0052,0.0039,0.0033,0.0052,0.0015,-0.0008,-0.0007,-0.0006,0.0071,0.0077,0.0083,0,0,0,0,0,0.0197,0.0209,0.0198,0.0196,0.0173,0.0166,0.0161,0.0137,0.0122,0.0127,0.0101,0.0079,0.004,0.0037,0.0031,0.005,-0.0009,-0.0008,-0.0007,0.0068,0.0076,0.0083,0,0,0,0,0,0,0.0222,0.0206,0.0193,0.02,0.0188,0.016,0.0161,0.0144,0.0126,0.0123,0.0085,0.0078,0.0074,0.0049,0.0047,0.0043,0.0012,0.0012,0.0071,0.0078,0.0084,0.0121,0.0014,0,0,0,0,0,0.0229,0.0234,0.0214,0.022,0.0217,0.0189,0.0183,0.0169,0.0149,0.0141,0.0115,0.0089,0.0073,0.0067,0.0044,0.0046,0.0033,0.0052,0.0058,0.0064,0.0088,0.0081,0.0089,-0.0002,-0.0002,-0.0002,0,0,0.0241,0.0232,0.0235,0.0225,0.0212,0.0223,0.0185,0.0183,0.0196,0.0138,0.0144,0.0108,0.0076,0.0075,0.0072,0.006,0.0081,0.0065,0.007,0.0092,0.0083,0.0092,0.01,-0.0002,-0.0002,-0.0002,0,0,0.0273,0.026,0.0276,0.0272,0.0261,0.0249,0.0253,0.0231,0.0225,0.0221,0.0185,0.0165,0.0136,0.0121,0.0109,0.0137,0.011,0.0125,0.0194,0.0186,0.0194,0.0201,0.0194,0.02,0.0134,0.0134,0.0134,0,0.0287,0.0308,0.028,0.0297,0.0308,0.0268,0.0298,0.0286,0.0263,0.0274,0.0234,0.0204,0.0161,0.0181,0.0182,0.0153,0.0147,0.017,0.0196,0.0203,0.0208,0.02,0.0205,0.0138,0.0137,0.0137,0.0137,0,0.0336,0.0351,0.0363,0.0375,0.038,0.0399,0.0385,0.039,0.037,0.0358,0.0362,0.0301,0.0293,0.0264,0.0229,0.0256,0.0238,0.0202,0.0183,0.0223,0.0211,0.0215,0.0143,0.0142,0.0141,0.014,0,0,0.0378,0.0396,0.0401,0.043,0.0428,0.0446,0.047,0.0494,0.0532,0.0483,0.0528,0.0466,0.0436,0.042,0.0371,0.0353,0.0365,0.0303,0.0301,0.0309,0.0358,0.0321,0.0322,0.0338,0.0339,0.034,0.0333,0,0.043,0.0488,0.048,0.0545,0.058,0.0565,0.0603,0.0615,0.0608,0.0637,0.058,0.059,0.0497,0.0498,0.0466,0.0404,0.0381,0.0371,0.0309,0.0308,0.0279,0.0327,0.0307,0.0297,0.0337,0.0337,0.0338,0,0.0488,0.0523,0.0597,0.0655,0.0671,0.0706,0.0775,0.0801,0.082,0.0816,0.0809,0.0763,0.0747,0.0645,0.0572,0.0575,0.0478,0.0408,0.0406,0.0352,0.0279,0.0263,0.0303,0.0121,0.0344,0.0343,0.0343,0,0.0554,0.061,0.068,0.0698,0.0751,0.0796,0.083,0.0864,0.0918,0.0941,0.0983,0.0933,0.0937,0.0819,0.0664,0.0631,0.0571,0.0503,0.0376,0.0372,0.0335,0.0326,0.0205,0.0439,0.0439,0.0439,0.0439,0,0.0622,0.0678,0.0722,0.0764,0.087,0.0877,0.0988,0.1011,0.1071,0.117,0.109,0.1159,0.0981,0.0917,0.0742,0.0593,0.0633,0.0412,0.0377,0.036,0.0353,0.0175,0.0076,0.0439,0.0439,0.0439,0.0439,0,0.0685,0.0708,0.0797,0.087,0.0905,0.0984,0.1095,0.1176,0.1217,0.1347,0.1369,0.1354,0.1281,0.1075,0.0898,0.0719,0.0447,0.0474,0.0466,0.043,0.0135,0.0043,-0.0093,-0.017,0.0355,0.0354,0.0354,0,0.0722,0.0775,0.0879,0.0946,0.0986,0.1097,0.1184,0.1248,0.1344,0.1485,0.1565,0.1536,0.1557,0.1278,0.0932,0.0635,0.0434,0.0407,0.0323,0.014,0.001,-0.0062,-0.0122,0.0303,0.0302,0.0301,0.03,0,0.0801,0.0836,0.0911,0.1045,0.1148,0.127,0.1399,0.1499,0.1608,0.1738,0.1904,0.194,0.1672,0.1375,0.0933,0.0709,0.028,0.038,0.0195,-0.0025,-0.0114,-0.0211,0.0283,0.0292,0.0293,0.0294,0.0294,0.0295,0.086,0.0927,0.1026,0.1156,0.1278,0.1438,0.1559,0.1712,0.1907,0.2121,0.2141,0.2224,0.177,0.1178,0.0843,0.0206,0.0218,0.0006,-0.0084,-0.0134,-0.0231,0.0249,0.0209,0.0209,0.0209,0.0209,0.0209,0,0.0931,0.1008,0.1131,0.1291,0.1434,0.1485,0.1702,0.184,0.2088,0.2275,0.2424,0.2239,0.1679,0.1087,0.0236,-0.0185,-0.033,-0.041,-0.0526,-0.0559,-0.0127,-0.0155,-0.0283,-0.0283,-0.0283,-0.0282,-0.0282,-0.0282,0.0973,0.1093,0.1155,0.1394,0.1512,0.1718,0.1847,0.2067,0.2233,0.2464,0.2506,0.2506,0.2054,0.0595,-0.0397,-0.0619,-0.0873,-0.0955,-0.1063,-0.0795,-0.0764,-0.0733,-0.0785,-0.1042,-0.1043,-0.1459,-0.1464,-0.1467]}],[{"header":{"parameterUnit":"m.s-1","parameterCategory":2,"la1":30.2991,"la2":30.254,"lo1":-89.0895,"lo2":-89.0444,"dy":0.0017,"dx":0.0017,"nx":28,"ny":28,"refTime":"2024-06-03T21:00:00:Z","depth":"2","parameterNumber":2,"parameterNumberName":"U-component_of_CURRENTS"},"data":[0,0,0,0,0,0,0,0,0,0,0,0,0,0,0,0,0,0,0,0,0,0,0,0,0,0,0,0,0,0,0,0,0,0,0,0,0,0,0,0,0,0,0,0,0,0,0,0,0,0,0,0,0,0,0,0,0,0,0.2891,0.2891,0,0.2922,0.2922,0.2922,0.2922,0.2921,0.2921,0.2921,0.293,0.2931,0.2931,0,0,0,0,0,0,0,0,0,0,0,0,0,0.286,0.2861,0.2891,0.2891,0.2892,0.2922,0.2922,0.2922,0.2922,0.2921,0.2921,0.292,0.293,0.2931,0.2931,0,0,0,0,0,0,0,0,0,0,0,0,0,0.2881,0.2861,0.2891,0.2895,0.2896,0.2922,0.2922,0.2923,0.2922,0.2921,0.2921,0.292,0.293,0.293,0.2931,0.295,0,0,0.2934,0.2935,0,0,0,0,0,0,0,0,0.2879,0.2882,0.2894,0.2895,0.2896,0.2917,0.2915,0.2931,0.2922,0.2912,0.2921,0.292,0.2924,0.2926,0.2933,0.295,0.2951,0.2934,0.2935,0.2935,0.2936,0,0,0,0,0,0,0,0.2878,0.2881,0.2903,0.2895,0.2895,0.2905,0.2907,0.2918,0.2921,0.2913,0.2913,0.2916,0.2924,0.2932,0.2933,0.2951,0.2934,0.2935,0.2936,0.2936,0.3049,0.3051,0,0,0,0,0,0,0.2873,0.2879,0.2902,0.2904,0.2886,0.2906,0.2908,0.2911,0.2921,0.2923,0.2917,0.2916,0.2931,0.2932,0.2934,0.3022,0.2935,0.2936,0.2937,0.3046,0.3049,0.3052,0,0,0,0,0,0,0.2872,0.2875,0.2901,0.2892,0.2896,0.2907,0.291,0.2912,0.2931,0.2925,0.2925,0.2935,0.293,0.2932,0.2959,0.302,0.2937,0.2938,0.3043,0.3047,0.3051,0.3157,0,0,0,0,0,0,0.2871,0.2875,0.2883,0.2892,0.2896,0.2922,0.2911,0.2913,0.2933,0.2933,0.2941,0.294,0.293,0.2957,0.296,0.3019,0.2938,0.304,0.3045,0.3049,0.315,0.3163,0.3175,0,0,0,0,0,0.287,0.288,0.2883,0.2886,0.2905,0.2923,0.2927,0.2932,0.2935,0.2947,0.2957,0.294,0.2988,0.296,0.2962,0.3024,0.3038,0.3044,0.3049,0.3145,0.3161,0.3175,0,0,0,0,0,0,0.287,0.2881,0.2884,0.2897,0.2912,0.2923,0.294,0.2944,0.2964,0.2969,0.2961,0.2962,0.3013,0.3,0.2969,0.307,0.3015,0.3021,0.3087,0.3102,0.3115,0.3127,0.2939,0,0,0,0,0,0.2875,0.2885,0.2898,0.291,0.2922,0.2937,0.2948,0.2953,0.2968,0.2976,0.2988,0.3007,0.3037,0.3052,0.3067,0.3116,0.3118,0.3161,0.3173,0.3184,0.3196,0.3259,0.3279,0.307,0.307,0.3069,0,0,0.2877,0.2886,0.2892,0.2911,0.2928,0.2959,0.2943,0.2968,0.3002,0.2975,0.3033,0.3047,0.3058,0.3116,0.314,0.3114,0.3243,0.319,0.3199,0.3206,0.3267,0.3287,0.3306,0.3073,0.3073,0.3072,0,0,0.289,0.2901,0.2918,0.2936,0.2962,0.2981,0.2993,0.302,0.3043,0.3088,0.3094,0.3148,0.3174,0.3216,0.3234,0.3325,0.3304,0.3329,0.3407,0.3469,0.3486,0.3502,0.3525,0.3542,0.3339,0.3339,0.3339,0,0.2895,0.2918,0.2926,0.2952,0.298,0.2997,0.3034,0.3063,0.3098,0.3138,0.3116,0.3215,0.3231,0.3324,0.3365,0.3358,0.3366,0.3348,0.3486,0.3501,0.3515,0.3535,0.3553,0.3345,0.3344,0.3343,0.3343,0,0.2919,0.2947,0.2963,0.3008,0.304,0.3073,0.3115,0.316,0.3194,0.323,0.332,0.3344,0.3409,0.3432,0.3428,0.355,0.3513,0.3491,0.3447,0.3543,0.3557,0.3574,0.3353,0.3351,0.3349,0.3348,0,0,0.2907,0.2969,0.2975,0.301,0.3074,0.3101,0.3181,0.3262,0.3323,0.3372,0.3459,0.354,0.3564,0.3587,0.36,0.3658,0.3776,0.3625,0.3626,0.3647,0.3888,0.379,0.3797,0.3774,0.3777,0.378,0.3855,0,0.2929,0.2983,0.3018,0.3091,0.3131,0.3187,0.3259,0.3336,0.34,0.3487,0.355,0.3634,0.3619,0.3664,0.3726,0.3773,0.3824,0.3756,0.3792,0.3793,0.3695,0.3815,0.3529,0.3565,0.387,0.3873,0.3874,0,0.2937,0.2981,0.3049,0.3142,0.3167,0.3218,0.3344,0.342,0.3549,0.3593,0.3692,0.3734,0.3866,0.3813,0.3945,0.39,0.3911,0.392,0.3923,0.3806,0.3727,0.352,0.3582,0.3901,0.3899,0.3897,0.3895,0,0.2916,0.3001,0.306,0.3089,0.3198,0.3253,0.3336,0.3461,0.354,0.3689,0.3749,0.3873,0.3959,0.4005,0.4049,0.4015,0.4148,0.4103,0.4011,0.4002,0.3754,0.3717,0.4179,0.4179,0.4178,0.4178,0.4178,0,0.2913,0.2959,0.3053,0.3085,0.3167,0.3262,0.3373,0.3459,0.3602,0.3694,0.3818,0.3891,0.4015,0.4096,0.4098,0.4116,0.4199,0.4053,0.4035,0.378,0.3747,0.4026,0.4007,0.4181,0.418,0.418,0.4179,0,0.2861,0.2925,0.2996,0.3116,0.3155,0.3223,0.338,0.3448,0.3604,0.3726,0.3785,0.3963,0.4084,0.4152,0.4246,0.4186,0.4201,0.4167,0.3845,0.3789,0.3994,0.398,0.4097,0.4095,0.4093,0.4091,0.409,0,0.2837,0.2869,0.2994,0.3037,0.3089,0.3202,0.3263,0.3424,0.3503,0.3738,0.378,0.3973,0.4037,0.4151,0.4126,0.4122,0.418,0.3814,0.3707,0.4025,0.3996,0.3985,0.3975,0.3414,0.3407,0.3402,0.3397,0,0.2794,0.284,0.29,0.2978,0.304,0.3122,0.3238,0.3276,0.3465,0.3563,0.3698,0.3785,0.3932,0.3831,0.3855,0.3801,0.38,0.3699,0.4147,0.3478,0.3387,0.3356,0.3367,0.3347,0.3352,0.3356,0.3359,0.3361,0.2757,0.279,0.2861,0.2909,0.2984,0.3024,0.3021,0.3127,0.3209,0.329,0.3475,0.3497,0.356,0.3475,0.3368,0.3313,0.3565,0.3383,0.3398,0.3419,0.3327,0.3237,0.315,0.3153,0.3156,0.3159,0.3162,0,0.2683,0.2733,0.279,0.2837,0.2836,0.2918,0.2974,0.2918,0.2914,0.3033,0.3098,0.2888,0.285,0.2929,0.2779,0.2766,0.2716,0.2643,0.2553,0.2607,0.2655,0.2519,0.213,0.2126,0.2122,0.2119,0,0,0.2661,0.2662,0.2682,0.2649,0.2688,0.2632,0.2617,0.2551,0.259,0.2515,0.2518,0.2704,0.2852,0.2441,0.2397,0.2241,0.2395,0.2155,0.2997,0.2948,0.2989,0.3113,0.297,0,0,0,0,0]},{"header":{"parameterUnit":"m.s-1","parameterCategory":2,"la1":30.2991,"la2":30.254,"lo1":-89.0895,"lo2":-89.0444,"dy":0.0017,"dx":0.0017,"nx":28,"ny":28,"refTime":"2024-06-03T21:00:00:Z","depth":"2","parameterNumber":3,"parameterNumberName":"V-component_of_CURRENTS"},"data":[0,0,0,0,0,0,0,0,0,0,0,0,0,0,0,0,0,0,0,0,0,0,0,0,0,0,0,0,0,0,0,0,0,0,0,0,0,0,0,0,0,0,0,0,0,0,0,0,0,0,0,0,0,0,0,0,0,0,0.0035,0.0035,0,-0.0011,-0.0011,-0.0012,-0.004,-0.004,-0.004,-0.004,-0.0091,-0.0092,-0.0094,0,0,0,0,0,0,0,0,0,0,0,0,0,0.0061,0.0061,0.0035,0.0035,0.0034,-0.0011,-0.0011,-0.0012,-0.004,-0.004,-0.004,-0.004,-0.0091,-0.0092,-0.0094,0,0,0,0,0,0,0,0,0,0,0,0,0,0.0035,0.0061,0.0035,0.0016,0.0014,-0.0011,-0.0011,-0.0012,-0.004,-0.004,-0.004,-0.004,-0.009,-0.0092,-0.0094,-0.0105,0,0,-0.01,-0.0101,0,0,0,0,0,0,0,0,0.0037,0.0034,0.0019,0.0017,0.0015,-0.0019,-0.0021,-0.0043,-0.004,-0.002,-0.004,-0.004,-0.0067,-0.0071,-0.008,-0.0107,-0.011,-0.01,-0.0101,-0.0102,-0.0103,0,0,0,0,0,0,0,0.0039,0.0036,0.0016,0.0019,0.0016,-0.0004,-0.0007,-0.0026,-0.0043,-0.0022,-0.0024,-0.0028,-0.0068,-0.0078,-0.0082,-0.011,-0.01,-0.0102,-0.0103,-0.0104,-0.0132,-0.0131,0,0,0,0,0,0,0.0048,0.0038,0.0017,0.0015,0.0027,-0.0004,-0.0008,-0.0009,-0.0043,-0.0048,-0.0027,-0.0029,-0.0075,-0.0079,-0.0084,-0.0073,-0.0102,-0.0104,-0.0105,-0.0132,-0.0132,-0.0131,0,0,0,0,0,0,0.0049,0.0047,0.0019,0.0026,0.0021,-0.0004,-0.0005,-0.001,-0.0015,-0.0047,-0.0052,-0.0027,-0.0075,-0.0081,-0.009,-0.0076,-0.0105,-0.0107,-0.0133,-0.0132,-0.0131,-0.0067,0,0,0,0,0,0,0.005,0.0048,0.0051,0.0027,0.0021,0.0016,-0.0005,-0.001,-0.0017,-0.0019,-0.0049,-0.0054,-0.0076,-0.0087,-0.0092,-0.0079,-0.0108,-0.0133,-0.0132,-0.0131,-0.007,-0.0065,-0.006,0,0,0,0,0,0.0051,0.006,0.0052,0.0049,0.0026,0.0016,0.0012,-0.0007,-0.0017,-0.0014,-0.0033,-0.0053,-0.0085,-0.0088,-0.0094,-0.0082,-0.0134,-0.0133,-0.0132,-0.0072,-0.0066,-0.006,0,0,0,0,0,0,0.0074,0.0057,0.0048,0.0051,0.0039,0.0012,0.0012,-0.0001,-0.0015,-0.0017,-0.0047,-0.0054,-0.0057,-0.0079,-0.0081,-0.0088,-0.0113,-0.0113,-0.0065,-0.006,-0.0055,-0.0027,-0.011,0,0,0,0,0,0.008,0.0082,0.0062,0.0066,0.0062,0.0038,0.0031,0.0019,0.0003,-0.0004,-0.0024,-0.0045,-0.0059,-0.0066,-0.0084,-0.0087,-0.0109,-0.0084,-0.0079,-0.0074,-0.0056,-0.0076,-0.0071,-0.0128,-0.0128,-0.0128,0,0,0.009,0.0081,0.0082,0.0071,0.0059,0.0066,0.0034,0.003,0.0042,-0.0007,0.0001,-0.0029,-0.0057,-0.0059,-0.0062,-0.0073,-0.0073,-0.0073,-0.0069,-0.0053,-0.0074,-0.0069,-0.0064,-0.0127,-0.0127,-0.0127,0,0,0.0116,0.0103,0.0116,0.011,0.0098,0.0088,0.0091,0.007,0.0066,0.0064,0.0035,0.0018,-0.0006,-0.002,-0.0031,-0.0009,-0.0046,-0.002,0.003,0.0011,0.0016,0.002,-0.0013,-0.0012,-0.0016,-0.0016,-0.0016,0,0.013,0.0143,0.0118,0.013,0.0137,0.0104,0.0127,0.0117,0.0097,0.0105,0.0078,0.0047,0.0016,0.0022,0.0027,0.0004,-0.0018,0.001,0.0019,0.0022,0.0025,-0.0009,-0.0009,-0.0013,-0.0013,-0.0013,-0.0014,0,0.0165,0.0177,0.0185,0.0194,0.0197,0.0209,0.0198,0.0203,0.019,0.0179,0.0176,0.0126,0.0115,0.0092,0.0067,0.0076,0.0048,0.0026,0.0007,0.0035,-0.0003,-0.0005,-0.0008,-0.0009,-0.001,-0.0011,0,0,0.0202,0.021,0.0216,0.0239,0.0235,0.0249,0.0271,0.0288,0.0318,0.0276,0.0307,0.0257,0.0226,0.0212,0.0166,0.0142,0.013,0.01,0.0097,0.0074,0.0079,0.0037,0.0031,0.011,0.011,0.0111,0.0039,0,0.0244,0.0288,0.0279,0.0333,0.0361,0.0348,0.0381,0.0389,0.0383,0.0401,0.0345,0.0351,0.0273,0.0272,0.0232,0.0168,0.0132,0.0151,0.005,0.0047,0.0012,0.003,0.0061,-0.0001,0.0038,0.0037,0.0037,0,0.0289,0.0316,0.0376,0.0424,0.0437,0.0466,0.0523,0.0548,0.0554,0.0548,0.0526,0.0482,0.0448,0.0374,0.0269,0.0285,0.0193,0.0123,0.0119,0.0062,0.0004,-0.0022,-0.0005,0.0035,0.0035,0.0035,0.0035,0,0.0346,0.0389,0.0447,0.046,0.0504,0.0543,0.0575,0.0599,0.0646,0.0651,0.0678,0.0606,0.0598,0.0473,0.032,0.0304,0.019,0.0152,0.0018,0.0013,0.0012,0.0007,0.0073,0.0073,0.0073,0.0073,0.0073,0,0.04,0.0448,0.0483,0.0519,0.0611,0.0615,0.0713,0.073,0.0772,0.0846,0.0766,0.0797,0.0626,0.0534,0.0368,0.0193,0.0225,0.0036,-0.0001,0.0032,0.0029,0.0042,0.0039,0.007,0.0071,0.0072,0.0072,0,0.0453,0.0471,0.0547,0.061,0.0642,0.0712,0.0814,0.0878,0.0907,0.1,0.1014,0.0959,0.085,0.0645,0.0452,0.0277,0.0099,0.002,0.006,0.0029,-0.0081,-0.008,-0.012,-0.0122,-0.0124,-0.0125,-0.0126,0,0.0484,0.0527,0.0623,0.0682,0.0717,0.0819,0.0895,0.0948,0.1028,0.1103,0.1159,0.1087,0.1044,0.0726,0.0426,0.013,0.0089,-0.0055,-0.0082,-0.0065,-0.0098,-0.0094,-0.009,-0.0066,-0.0066,-0.0067,-0.0067,0,0.0548,0.0581,0.0647,0.0768,0.0858,0.0971,0.1086,0.1167,0.1247,0.1324,0.1402,0.1373,0.1086,0.0805,0.0389,0.0183,-0.0006,-0.0075,-0.0049,-0.0024,-0.0021,-0.005,-0.0047,-0.0071,-0.0071,-0.0071,-0.007,-0.007,0.0602,0.0661,0.075,0.0862,0.0976,0.1117,0.1219,0.134,0.1484,0.1591,0.1558,0.1519,0.1189,0.0675,0.0321,-0.0039,-0.0022,-0.0161,-0.0157,-0.0152,-0.0135,-0.0135,-0.0205,-0.0205,-0.0206,-0.0206,-0.0206,0,0.0662,0.0729,0.0837,0.098,0.1108,0.1158,0.1344,0.1439,0.1613,0.1688,0.173,0.1417,0.1095,0.0726,0.0199,-0.0138,-0.0156,-0.0247,-0.0186,-0.0179,-0.0174,-0.0157,-0.0233,-0.0234,-0.0235,-0.0236,0,0,0.0701,0.0801,0.0852,0.1062,0.1173,0.1346,0.1456,0.1599,0.1699,0.1755,0.1738,0.1642,0.1216,0.0822,0.0378,0.0085,0.0024,0.0014,0.0072,0.0203,0.0212,-0.009,-0.0052,0,0,0,0,0]}],[{"header":{"parameterUnit":"m.s-1","parameterCategory":2,"la1":30.2991,"la2":30.254,"lo1":-89.0895,"lo2":-89.0444,"dy":0.0017,"dx":0.0017,"nx":28,"ny":28,"refTime":"2024-06-03T21:00:00:Z","depth":"4","parameterNumber":2,"parameterNumberName":"U-component_of_CURRENTS"},"data":[0,0,0,0,0,0,0,0,0,0,0,0,0,0,0,0,0,0,0,0,0,0,0,0,0,0,0,0,0,0,0,0,0,0,0,0,0,0,0,0,0,0,0,0,0,0,0,0,0,0,0,0,0,0,0,0,0,0,0.1837,0.1837,0,0.1878,0.1878,0.1878,0.1943,0.1944,0.1946,0.1947,0.2017,0.2018,0.2018,0,0,0,0,0,0,0,0,0,0,0,0,0,0.1785,0.1785,0.1837,0.1837,0.1838,0.1878,0.1878,0.1879,0.1943,0.1944,0.1946,0.1948,0.2017,0.2018,0.2018,0,0,0,0,0,0,0,0,0,0,0,0,0,0.1812,0.1786,0.1837,0.1877,0.1881,0.1878,0.1878,0.1879,0.1942,0.1944,0.1947,0.1949,0.2017,0.2017,0.2018,0.1981,0,0,0.2021,0.2021,0,0,0,0,0,0,0,0,0.1811,0.1814,0.187,0.1874,0.1879,0.191,0.1886,0.1915,0.1942,0.1916,0.1947,0.195,0.1984,0.1988,0.1987,0.1984,0.1988,0.2021,0.2021,0.2022,0.2022,0,0,0,0,0,0,0,0.1809,0.1812,0.185,0.1871,0.1876,0.1883,0.189,0.1891,0.1936,0.1919,0.1924,0.1932,0.1987,0.1985,0.1989,0.1989,0.2021,0.2022,0.2022,0.2022,0.2097,0.2098,0,0,0,0,0,0,0.1808,0.181,0.1849,0.1852,0.1852,0.1883,0.189,0.1896,0.1936,0.1945,0.193,0.1935,0.1983,0.1988,0.1992,0.2075,0.2022,0.2023,0.2023,0.2096,0.2097,0.2099,0,0,0,0,0,0,0.1807,0.1811,0.1847,0.1834,0.184,0.1882,0.1888,0.1895,0.1936,0.1945,0.1954,0.1969,0.1985,0.199,0.2031,0.2074,0.2023,0.2024,0.2094,0.2096,0.2098,0.2162,0,0,0,0,0,0,0.1805,0.181,0.1831,0.1834,0.1841,0.1869,0.1886,0.1895,0.1936,0.1944,0.198,0.1986,0.1987,0.203,0.2032,0.2074,0.2024,0.2092,0.2095,0.2097,0.2158,0.2166,0.2173,0,0,0,0,0,0.1803,0.1817,0.1831,0.1837,0.1862,0.187,0.1874,0.1909,0.1937,0.1953,0.1986,0.1987,0.2049,0.2031,0.2033,0.2077,0.2091,0.2094,0.2097,0.2154,0.2164,0.2172,0,0,0,0,0,0,0.181,0.1825,0.1841,0.1862,0.1878,0.1883,0.1906,0.1926,0.1962,0.1985,0.1996,0.2004,0.2059,0.2053,0.2033,0.2107,0.2074,0.2078,0.2117,0.2126,0.2133,0.2123,0.2025,0,0,0,0,0,0.1817,0.1834,0.1846,0.1867,0.1877,0.1897,0.1913,0.1936,0.1959,0.198,0.2006,0.2037,0.2064,0.2085,0.2102,0.2132,0.2143,0.2165,0.2172,0.2179,0.2173,0.2246,0.226,0.211,0.211,0.211,0,0,0.1827,0.1839,0.1851,0.1871,0.1886,0.19,0.1913,0.1945,0.1972,0.1979,0.2037,0.2063,0.2078,0.2122,0.2146,0.213,0.2226,0.2183,0.2188,0.2178,0.2251,0.2266,0.2279,0.2112,0.2112,0.2111,0,0,0.1835,0.1864,0.1874,0.1891,0.1921,0.1928,0.1946,0.1973,0.2007,0.2052,0.2073,0.2126,0.2161,0.2184,0.2198,0.2253,0.2264,0.2268,0.23,0.2373,0.2386,0.2397,0.2425,0.2439,0.2273,0.2273,0.2273,0,0.1853,0.186,0.188,0.1894,0.1914,0.1944,0.196,0.1988,0.2032,0.2068,0.2085,0.217,0.2189,0.2243,0.2268,0.2271,0.23,0.2265,0.2384,0.2395,0.2406,0.2432,0.2446,0.2277,0.2276,0.2276,0.2276,0,0.1852,0.1876,0.1885,0.1911,0.1935,0.1956,0.1991,0.2038,0.2088,0.2121,0.2204,0.2233,0.2292,0.2308,0.2305,0.2391,0.2382,0.2386,0.2361,0.2425,0.2448,0.2462,0.2282,0.228,0.2279,0.2278,0,0,0.1843,0.1877,0.1886,0.1903,0.1949,0.1964,0.2023,0.2074,0.2136,0.2192,0.2268,0.2321,0.2364,0.238,0.2397,0.2446,0.255,0.2453,0.2455,0.248,0.2693,0.2523,0.2521,0.259,0.2593,0.2595,0.2676,0,0.1838,0.1861,0.1883,0.1917,0.1931,0.1988,0.2035,0.2101,0.2177,0.2261,0.2315,0.2395,0.2384,0.2438,0.2488,0.2542,0.259,0.2525,0.2626,0.2628,0.247,0.2533,0.2604,0.2686,0.2689,0.2692,0.2693,0,0.1821,0.1842,0.1867,0.1924,0.1938,0.1976,0.2079,0.213,0.2251,0.2323,0.2417,0.2467,0.2553,0.2542,0.2658,0.2626,0.2666,0.2689,0.2693,0.2517,0.2483,0.261,0.2718,0.2716,0.2714,0.2712,0.2711,0,0.1782,0.183,0.185,0.1869,0.1936,0.1986,0.2045,0.2163,0.2225,0.2386,0.2464,0.2563,0.2644,0.2707,0.2758,0.274,0.2867,0.2855,0.2726,0.2714,0.2814,0.2801,0.2939,0.2938,0.2938,0.2938,0.2938,0,0.1742,0.1767,0.1845,0.1855,0.1908,0.1982,0.2071,0.2158,0.2292,0.2366,0.2504,0.2574,0.27,0.2776,0.28,0.2794,0.2917,0.273,0.273,0.2837,0.2825,0.2824,0.2809,0.2941,0.294,0.294,0.2939,0,0.1678,0.1724,0.1753,0.1843,0.1882,0.1931,0.2067,0.2127,0.2288,0.2397,0.2454,0.2624,0.2731,0.2805,0.2916,0.2841,0.2857,0.2826,0.292,0.2924,0.2641,0.2629,0.2688,0.2682,0.2678,0.2674,0.2671,0,0.1635,0.1642,0.1736,0.1757,0.1801,0.1896,0.195,0.211,0.2176,0.2394,0.2422,0.2595,0.2685,0.2696,0.2798,0.2825,0.2797,0.2776,0.2703,0.2624,0.262,0.2614,0.2609,0.2664,0.2663,0.2662,0.2661,0,0.1545,0.1592,0.1611,0.1666,0.1722,0.1776,0.188,0.1918,0.2094,0.226,0.2345,0.2411,0.2525,0.2597,0.264,0.2652,0.277,0.273,0.2738,0.2669,0.2597,0.2595,0.2595,0.2646,0.2648,0.2649,0.265,0,0.1477,0.1468,0.1502,0.1541,0.1598,0.162,0.1704,0.1782,0.1867,0.2111,0.2136,0.2327,0.2493,0.2509,0.2546,0.2547,0.2512,0.242,0.2444,0.2462,0.235,0.2223,0.2159,0,0,0,0,0,0.1405,0.137,0.1378,0.1388,0.1443,0.1499,0.162,0.1713,0.1901,0.1903,0.2013,0.2108,0.2196,0.2301,0.226,0.2446,0.2513,0.2386,0.2416,0.2561,0.2579,0.2468,0,0,0,0,0,0,0.1342,0.1334,0.1322,0.1254,0.1259,0.1306,0.1393,0.1528,0.1548,0.1756,0.1821,0.1977,0.2098,0.2197,0.222,0.2248,0.2222,0.2507,0.2501,0.2551,0.2567,0.2581,0.2473,0,0,0,0,0]},{"header":{"parameterUnit":"m.s-1","parameterCategory":2,"la1":30.2991,"la2":30.254,"lo1":-89.0895,"lo2":-89.0444,"dy":0.0017,"dx":0.0017,"nx":28,"ny":28,"refTime":"2024-06-03T21:00:00:Z","depth":"4","parameterNumber":3,"parameterNumberName":"V-component_of_CURRENTS"},"data":[0,0,0,0,0,0,0,0,0,0,0,0,0,0,0,0,0,0,0,0,0,0,0,0,0,0,0,0,0,0,0,0,0,0,0,0,0,0,0,0,0,0,0,0,0,0,0,0,0,0,0,0,0,0,0,0,0,0,0.0021,0.0021,0,-0.0005,-0.0006,-0.0006,-0.0026,-0.0026,-0.0026,-0.0026,-0.0059,-0.006,-0.006,0,0,0,0,0,0,0,0,0,0,0,0,0,0.0034,0.0034,0.0021,0.0021,0.002,-0.0005,-0.0006,-0.0006,-0.0026,-0.0026,-0.0026,-0.0027,-0.0059,-0.006,-0.0061,0,0,0,0,0,0,0,0,0,0,0,0,0,0.002,0.0034,0.0021,0.0007,0.0006,-0.0005,-0.0006,-0.0006,-0.0026,-0.0026,-0.0026,-0.0027,-0.0059,-0.006,-0.0061,-0.0062,0,0,-0.0064,-0.0064,0,0,0,0,0,0,0,0,0.0021,0.0019,0.001,0.0008,0.0007,-0.0012,-0.0013,-0.0025,-0.0026,-0.0014,-0.0026,-0.0027,-0.0044,-0.0046,-0.0051,-0.0064,-0.0065,-0.0064,-0.0065,-0.0065,-0.0065,0,0,0,0,0,0,0,0.0022,0.002,0.001,0.0009,0.0008,-0.0004,-0.0006,-0.0016,-0.0028,-0.0015,-0.0017,-0.0019,-0.0045,-0.005,-0.0052,-0.0066,-0.0064,-0.0065,-0.0066,-0.0066,-0.0072,-0.0072,0,0,0,0,0,0,0.0027,0.0021,0.0011,0.0009,0.0014,-0.0004,-0.0006,-0.0006,-0.0027,-0.0031,-0.0019,-0.002,-0.0048,-0.005,-0.0053,-0.0038,-0.0065,-0.0066,-0.0067,-0.0072,-0.0072,-0.0071,0,0,0,0,0,0,0.0027,0.0026,0.0012,0.0015,0.0012,-0.0004,-0.0004,-0.0007,-0.001,-0.003,-0.0034,-0.0019,-0.0048,-0.0051,-0.0051,-0.004,-0.0067,-0.0068,-0.0073,-0.0072,-0.0072,-0.0021,0,0,0,0,0,0,0.0028,0.0027,0.0029,0.0015,0.0012,0.0012,-0.0003,-0.0007,-0.0011,-0.0013,-0.0031,-0.0035,-0.0048,-0.0049,-0.0052,-0.0042,-0.0068,-0.0074,-0.0073,-0.0072,-0.0023,-0.0018,-0.0014,0,0,0,0,0,0.0028,0.0034,0.0029,0.0028,0.0016,0.0012,0.001,-0.0003,-0.0011,-0.0008,-0.0017,-0.0034,-0.0046,-0.005,-0.0053,-0.0043,-0.0074,-0.0073,-0.0072,-0.0025,-0.0019,-0.0015,0,0,0,0,0,0,0.0042,0.0033,0.0027,0.003,0.0024,0.0009,0.0011,0.0001,-0.0005,-0.0006,-0.0026,-0.0029,-0.0026,-0.0041,-0.0045,-0.0043,-0.0064,-0.0063,-0.0027,-0.0022,-0.0018,-0.0009,-0.0069,0,0,0,0,0,0.0046,0.0049,0.0038,0.0041,0.004,0.0026,0.0022,0.0015,0.0007,0.0004,-0.0008,-0.002,-0.0025,-0.0028,-0.0037,-0.0034,-0.0065,-0.0032,-0.0027,-0.0023,-0.0019,-0.0054,-0.0052,-0.0068,-0.0068,-0.0068,0,0,0.0052,0.0048,0.0049,0.0044,0.0039,0.0048,0.0023,0.0023,0.0035,0.0002,0.0013,-0.0005,-0.0021,-0.0016,-0.0016,-0.0027,-0.0036,-0.0022,-0.0019,-0.0016,-0.0052,-0.0051,-0.005,-0.0067,-0.0067,-0.0067,0,0,0.0071,0.0063,0.0074,0.0073,0.0068,0.0063,0.0065,0.0055,0.0054,0.0061,0.0041,0.0031,0.0024,0.0013,0.0007,0.0029,-0.0012,0.0025,0.0054,0.0021,0.0022,0.0022,-0.0019,-0.0023,0.0027,0.0027,0.0027,0,0.008,0.0092,0.0077,0.0088,0.0095,0.0074,0.0094,0.0091,0.0083,0.0086,0.0073,0.0055,0.0039,0.0042,0.005,0.0039,0.0009,0.0037,0.0026,0.0026,0.0026,-0.0017,-0.0022,0.003,0.0029,0.0029,0.0029,0,0.0107,0.0119,0.0126,0.0138,0.0143,0.0154,0.0151,0.0156,0.0151,0.0143,0.0142,0.0114,0.0103,0.0094,0.0081,0.0074,0.0049,0.0036,0.0014,0.003,-0.0016,-0.0022,0.0033,0.0033,0.0032,0.0031,0,0,0.0127,0.0143,0.0148,0.0168,0.0172,0.0184,0.0203,0.0215,0.0232,0.021,0.0222,0.0201,0.0173,0.0164,0.0136,0.0106,0.0075,0.0074,0.0071,0.0034,-0.0008,-0.0016,-0.0024,0.0058,0.0057,0.0057,-0.0042,0,0.0158,0.0195,0.0194,0.024,0.0262,0.0256,0.028,0.0285,0.0283,0.0286,0.0245,0.0245,0.0204,0.0199,0.0162,0.01,0.0062,0.0102,-0.002,-0.0023,-0.0032,-0.003,0.0055,-0.0046,-0.0048,-0.0049,-0.0049,0,0.0188,0.0212,0.0259,0.0301,0.031,0.0335,0.037,0.0391,0.0384,0.0378,0.0354,0.0317,0.0274,0.0237,0.0128,0.0154,0.008,0.0023,0.0017,-0.0011,-0.0042,-0.0066,-0.0061,-0.006,-0.0059,-0.0058,-0.0057,0,0.0218,0.0261,0.0306,0.0318,0.0356,0.0383,0.0408,0.0418,0.045,0.0437,0.0442,0.0375,0.0351,0.0247,0.0125,0.0127,-0.0007,-0.002,-0.0102,-0.0105,-0.0091,-0.0091,-0.01,-0.01,-0.01,-0.01,-0.01,0,0.0252,0.0289,0.0326,0.0352,0.0419,0.0427,0.0492,0.0504,0.0522,0.0561,0.0494,0.0491,0.0354,0.0259,0.0138,-0.0003,-0.0002,-0.0098,-0.0128,-0.0069,-0.0064,-0.0096,-0.0095,-0.0104,-0.0103,-0.0102,-0.0101,0,0.0277,0.0298,0.0356,0.0409,0.0437,0.0485,0.0561,0.0602,0.0609,0.0654,0.0653,0.0579,0.046,0.0303,0.0132,0.0028,-0.0115,-0.0167,-0.0099,-0.0123,-0.0195,-0.019,-0.0262,-0.0263,-0.0264,-0.0265,-0.0266,0,0.0293,0.0324,0.0403,0.0447,0.0477,0.0552,0.0608,0.0649,0.0695,0.0707,0.0728,0.0631,0.0559,0.0308,0.0135,-0.0107,-0.0139,-0.0223,-0.0202,-0.0189,-0.0211,-0.0204,-0.0197,-0.0267,-0.0267,-0.0267,-0.0268,0,0.0324,0.0351,0.04,0.0491,0.0561,0.0647,0.0727,0.0767,0.0814,0.0817,0.0796,0.0667,0.0529,0.0325,0.0133,-0.0041,-0.0173,-0.0232,-0.0231,-0.0213,-0.0196,-0.0215,-0.0207,-0.0271,-0.027,-0.027,-0.027,0,0.0349,0.0384,0.0449,0.0534,0.0623,0.0713,0.0756,0.081,0.0859,0.0869,0.0858,0.0703,0.0619,0.0359,0.0179,0.0007,-0.0032,-0.009,-0.0097,-0.0096,-0.0021,0.0027,-0.0004,0,0,0,0,0,0.037,0.0411,0.0486,0.0579,0.0667,0.0726,0.0823,0.0857,0.0899,0.0899,0.0886,0.0758,0.0506,0.0391,0.0221,0.0148,-0.0077,-0.006,-0.015,-0.0288,-0.0284,-0.0224,0,0,0,0,0,0,0.0383,0.0447,0.0485,0.0603,0.0669,0.0778,0.0843,0.0875,0.0877,0.0886,0.0758,0.0704,0.0458,0.0604,0.0213,0.016,0.0077,-0.0175,-0.0179,-0.029,-0.0286,-0.0284,-0.0221,0,0,0,0,0]}]]